Location: Zagreb
(45.8000°N, 16.0000°E)
Time: 14:55:48
(UTC+02:00)

Vanguard 1 Rocket - Visible Passes

Search period start: 14 July 2024 00:00
Search period end: 24 July 2024 00:00
Orbit: 650 x 4219 km, 34.3° (Epoch: 13 July)

Date Brightness Start Highest point End Pass type
(mag) Time Alt. Az. Time Alt. Az. Time Alt. Az.
14 Jul 8.9 00:44:54 10° WSW 00:51:57 39° S 01:04:42 10° SE visible
14 Jul 10.0 03:09:42 10° WSW 03:18:35 27° SSW 03:32:38 10° SSE visible
14 Jul 8.6 21:11:53 10° SSW 21:15:40 21° SSE 21:20:47 10° ESE visible
14 Jul 8.6 23:33:55 10° WSW 23:39:48 37° S 23:50:00 10° ESE visible
15 Jul 9.5 01:57:44 10° WSW 02:05:36 31° SSW 02:18:52 10° SE visible
15 Jul 10.5 04:25:43 10° WSW 04:32:48 15° SSW 04:41:56 10° S visible
15 Jul 8.4 22:23:12 10° SW 22:28:04 31° SSE 22:35:20 11° ESE visible
16 Jul 9.0 00:46:20 10° WSW 00:59:57 20° SE 01:04:37 10° SE visible
16 Jul 10.0 03:17:35 20° SW 03:19:33 21° SSW 03:30:49 10° SSE visible
16 Jul 8.4 21:12:47 10° SSW 21:16:38 23° SSE 21:21:51 10° ESE visible
16 Jul 8.6 23:35:17 10° WSW 23:40:53 34° S 23:42:34 32° SSE visible
17 Jul 10.0 01:59:31 10° WSW 02:12:58 18° SSE 02:17:57 10° SSE visible
17 Jul 8.3 22:24:27 10° SW 22:29:08 31° S 22:33:31 18° SE visible
18 Jul 9.3 00:47:55 10° WSW 01:07:34 - SE 00:50:38 21° SW visible
18 Jul 10.7 03:25:00 13° S 03:25:00 13° S 03:28:06 10° S visible
18 Jul 8.3 21:13:49 10° SW 21:17:39 24° SSE 21:22:50 10° ESE visible
18 Jul 8.7 23:36:43 10° WSW 23:41:51 30° S 23:41:51 30° S visible
19 Jul10.402:19:08SSE02:19:08SSE01:58:59WSWvisible
19 Jul 8.4 22:25:46 10° WSW 22:30:14 29° S 22:33:13 21° SE visible
20 Jul 9.7 00:49:40 10° WSW 00:50:21 13° WSW 00:50:21 13° WSW visible
20 Jul 8.2 21:14:57 10° SW 21:18:45 24° S 21:23:44 10° ESE visible
20 Jul 8.9 23:38:16 10° WSW 23:41:49 24° SSW 23:41:49 24° SSW visible
21 Jul 8.4 22:27:09 10° WSW 22:31:23 26° S 22:33:20 22° SSE visible
22 Jul 8.2 21:16:10 10° SW 21:19:51 24° S 21:24:35 10° SE visible
22 Jul 9.1 23:40:01 10° WSW 23:42:05 17° SW 23:42:05 17° SW visible
23 Jul 8.6 22:28:40 10° WSW 22:32:32 22° S 22:33:43 20° S visible
